Regional Weather Roundup
Issued by NWS

Home | Current Version | Previous Version | Graphics & Text | Print | Product List | Glossary On
Versions: 1 2 3 4 5 6 7 8 9 10 11 12 13 14 15 16 17 18 19 20 21 22 23 24 25 26 27 28 29 30 31 32 33 34 35 36 37 38 39 40 41 42 43 44 45 46 47 48 49 50
000
ASUS44 KMEG 100200
RWRTN
TENNESSEE HOURLY STATE WEATHER ROUNDUP
NATIONAL WEATHER SERVICE MEMPHIS TN
800 PM CST TUE FEB 09 2016

TNZ002-004-019-021-049-052-054-088>092-100300-
WEST TENNESSEE

CITY           SKY/WX    TMP DP  RH WIND       PRES   REMARKS
MEMPHIS INTL   CLEAR     30  13  49 NW5       30.15S WCI  25
NWS MEMPHIS      N/A     30 N/A N/A MISG        N/A
JACKSON        CLEAR     24  15  68 NW5       30.13R WCI  18
DYERSBURG      CLEAR     27  12  54 NW3       30.16R
UNION CITY     MOCLDY    25  14  63 NW8       30.11S WCI  16
PARIS          CLOUDY    19  14  79 CALM      30.11R
$$

TNZ008-025-027-028-033-062-065-066-100300-
NORTH MIDDLE TENNESSEE

CITY           SKY/WX    TMP DP  RH WIND       PRES   REMARKS
NASHVILLE      LGT SNOW  23  15  71 NW7       30.09R WCI  15
CLARKSVILLE    CLOUDY    21  14  74 NW10      30.10R WCI  10
COOKEVILLE     CLOUDY    21  16  79 NW6       30.00S WCI  14
CROSSVILLE     CLOUDY    19  12  74 W7        29.94R WCI  10
$$

TNZ061-075-076-078-094-096-097-100300-
SOUTH MIDDLE TENNESSEE

CITY           SKY/WX    TMP DP  RH WIND       PRES   REMARKS
TULLAHOMA      MOCLDY    21  21 100 W9        30.03S WCI  11
WINCHESTER     MOCLDY    23  18  80 NW12      30.04S WCI  12
MCMINNVILLE    CLOUDY    21  16  79 VRB3      30.03R
COLUMBIA       CLOUDY    23  21  93 NW7       30.07R WCI  15
SHELBYVILLE    CLOUDY    25  19  80 NW14      30.07R WCI  13
$$

TNZ017-018-042-046-047-100300-
NORTHEAST TENNESSEE

CITY           SKY/WX    TMP DP  RH WIND       PRES   REMARKS
TRI CITIES     FLURRIES  23  13  65 W12       29.89R WCI  12
$$

TNZ012-013-036-069-073-074-100300-
CENTRAL EAST TENNESSEE

CITY           SKY/WX    TMP DP  RH WIND       PRES   REMARKS
KNOXVILLE      FLURRIES  26  17  68 W16       29.96R WCI  14
OAK RIDGE      CLOUDY    26  14  60 W12       29.99R WCI  16
GATLINBURG     CLOUDY    25  18  74 W3        29.95R
$$

TNZ083-085-099-100300-
SOUTHEAST TENNESSEE

CITY           SKY/WX    TMP DP  RH WIND       PRES   REMARKS
CHATTANOOGA    CLOUDY    27  13  55 NW10      30.04R WCI  17
$$

SKY/WX REPORTED AS FAIR MEANS FEW OR NO CLOUDS BELOW
12 THOUSAND FEET.




USA.gov is the U.S. government's official web portal to all federal, state and local government web resources and services.